sat.trackr.live / text

‹ back to catalog

STARLINK-2555

NORAD 48291 · 2021-036R

PAYLOAD ACTIVE UNKNOWN

§ Identity

Operator
Country
US
Launch date
2021-04-29
Launch site
AFETR
Launch vehicle
Mass (kg)
RCS (m²)

Purposes: comms

External: N2YO · Heavens-Above · Gunter

§ Orbital elements

Epoch: 2026-05-25T02:07:21.196128Z

Period
94.01 min
Inclination
53.1608°
Eccentricity
0.0001289
Mean motion
15.31697949 rev/d
Perigee alt
469.9 km
Apogee alt
471.6 km
Semi-major
6,848.9 km
B*
2.3735e-5
RAAN
82.4808°
Arg perigee
91.6613°
Mean anomaly
268.4536°
Rev number
28,007

§ Raw data

STARLINK-25551 48291U 21036R   26145.08843977  .00000371  00000+0  23735-4 0  99942 48291  53.1608  82.4808 0001289  91.6613 268.4536 15.31697949280070

JSON: /api/v1/satellites/48291 · /tle

For live sub-satellite position, see the globe view (requires WebGL).

§ Visibility from observer

Set your observer location to see the next 7 days of passes ≥ 10°. The values pass through the URL so the page stays shareable.

No JS? Fill the form by hand. The geolocation button needs JavaScript.